Wind_Speed
98 95 96 94 95 97 94 91 85 79 71 67 63 64 62 59 56 55 55 55 58 62 64 63 62 63 63 63 65 66 66 66 66 67 69 69 64 65 65 67 70 72 69
100 96 94 94 93 95 96 94 89 76 72 71 70 67 63 58 61 58 55 57 60 58 56 57 59 62 64 65 66 66 64 62 61 58 65 66 64 66 68 72 71 73 72
99 96 97 95 93 93 95 95 92 88 79 61 69 69 67 63 61 60 58 63 63 60 59 59 57 59 60 61 62 64 65 64 65 66 67 68 69 70 72 76 75 78 78
94 95 97 96 93 92 94 95 95 91 84 81 66 74 74 72 69 68 67 67 63 56 55 54 59 65 66 67 67 68 70 70 72 72 73 74 74 74 76 77 78 78 78
90 92 95 97 97 93 93 94 93 92 90 86 81 77 78 77 78 74 74 70 66 65 67 59 59 61 62 65 70 74 74 72 73 76 78 80 77 75 77 76 79 81 83
87 90 91 94 94 93 95 95 93 92 92 88 92 86 81 81 78 74 74 79 77 74 70 68 70 70 69 70 70 73 76 74 72 74 73 74 73 74 76 78 81 82 84
88 88 87 88 86 90 94 95 93 94 97 99 91 89 83 79 75 77 78 79 79 79 82 81 80 75 78 75 74 76 77 77 77 79 79 74 73 76 77 73 75 81 86
88 87 86 85 85 88 90 91 94 98 101 102 96 92 89 81 82 80 81 80 80 78 81 88 88 85 85 87 87 85 88 86 83 84 82 81 81 78 77 77 82 83 86
90 88 83 83 84 84 88 89 97 99 100 102 102 102 105 98 88 86 95 80 85 87 86 93 91 88 89 90 91 91 91 89 90 89 90 85 83 83 82 89 91 92 96
88 87 80 80 81 83 87 92 95 94 99 102 104 106 106 107 104 97 98 93 87 89 94 97 91 91 91 88 91 91 88 89 91 90 91 92 87 90 95 99 100 102 104
89 87 83 80 79 84 88 91 90 97 97 102 106 106 106 107 105 109 106 98 102 103 103 105 104 102 98 94 95 95 97 92 92 94 97 98 96 98 100 104 109 111 113
86 86 84 80 80 83 87 89 90 92 93 97 101 104 106 105 106 111 113 113 111 109 108 108 109 106 108 109 107 106 104 104 101 101 101 103 104 105 110 115 117 120 122
84 84 83 82 80 80 82 84 85 90 91 95 95 99 102 108 105 106 111 117 119 119 119 117 117 116 114 114 116 115 116 117 117 117 119 116 115 119 124 126 129 128 128
80 81 80 80 81 79 80 80 83 86 89 91 95 98 100 105 104 106 110 111 115 118 120 122 123 124 125 124 125 123 123 124 124 123 124 125 128 130 130 126 122 120 118
74 76 77 78 79 81 81 80 81 85 89 91 93 98 102 105 106 108 110 112 114 116 117 117 117 118 119 121 121 124 124 126 127 127 126 125 122 120 118 117 116 114 111
73 73 74 76 77 79 82 84 84 86 88 91 93 96 99 102 104 106 109 111 112 114 115 116 118 119 118 118 117 116 115 117 117 119 118 117 114 113 112 111 111 111 109
69 71 72 74 75 78 81 84 87 89 91 93 95 96 98 99 100 102 104 106 109 110 111 111 112 113 113 113 114 114 114 115 115 115 113 113 112 111 104 104 100 98 92
68 70 72 73 75 76 77 80 83 86 89 90 91 93 95 96 99 100 102 103 105 107 108 107 108 107 106 106 107 109 108 107 106 104 105 103 98 96 95 92 86 82 80
67 69 71 73 74 74 75 77 79 79 80 81 83 86 87 89 90 91 92 93 94 94 93 91 92 92 93 94 95 95 94 94 94 92 91 89 87 84 82 80 76 74 71
68 70 72 72 73 74 76 76 75 76 78 79 81 82 83 84 84 85 85 85 85 84 83 82 82 82 83 84 84 84 83 82 81 81 81 79 77 73 70 69 65 65 62
67 67 69 73 74 73 72 71 72 74 74 76 77 78 78 79 79 80 80 79 79 78 77 77 77 77 76 76 75 75 74 74 73 72 71 70 67 65 63 61 59 57 58
65 67 69 68 66 64 64 65 66 67 69 70 71 71 71 72 72 72 73 74 73 73 72 71 70 70 69 68 68 68 67 66 66 65 62 60 57 58 56 53 53 55 55
65 63 59 61 60 60 61 62 63 62 62 62 63 63 65 66 66 67 67 67 67 67 66 65 65 63 62 61 61 61 60 60 59 57 56 53 52 50 50 51 51 49 49
55 54 54 54 54 52 51 52 51 54 54 55 56 56 56 57 57 57 56 56 56 57 57 58 58 56 55 55 55 55 55 53 52 51 51 49 47 48 49 46 47 46 47
45 44 42 42 43 45 46 47 48 48 50 53 52 50 48 49 50 50 47 46 45 46 46 47 46 46 46 47 49 48 46 45 45 44 45 46 45 44 44 44 44 47 53
40 41 40 43 42 42 42 43 45 47 50 50 49 48 46 47 46 45 43 41 40 40 41 41 41 41 41 41 40 41 42 44 44 45 45 43 43 44 40 43 49 51 54
Wind_Direction
219 220 221 222 223 224 225 225 223 222 225 230 235 239 239 240 238 246 252 256 259 260 261 259 258 259 260 263 265 268 271 273 275 277 281 283 286 286 287 290 292 294 297
219 221 223 222 223 223 225 226 225 221 222 230 234 238 239 242 243 241 243 249 250 251 254 257 261 263 265 267 268 270 272 274 276 276 276 281 283 285 288 289 290 293 297
221 221 224 224 223 223 225 226 227 224 222 222 233 237 240 241 243 243 245 247 250 253 253 255 257 258 259 261 264 265 266 268 272 273 275 278 281 284 286 287 291 293 295
222 222 224 226 225 224 225 226 226 227 224 225 227 233 239 240 241 246 248 249 248 248 253 256 259 260 260 259 263 265 265 266 269 273 275 276 278 282 282 288 290 292 295
224 224 225 226 226 225 227 227 226 227 228 225 228 230 234 237 240 242 246 246 248 248 253 247 252 254 257 261 264 265 266 267 271 273 274 276 279 282 284 287 290 294 297
223 224 224 226 228 228 229 229 226 227 227 226 226 228 230 236 237 240 244 245 246 250 254 255 257 259 262 261 265 268 269 270 271 272 273 275 279 281 286 287 289 291 299
222 223 225 226 226 229 229 229 227 225 225 224 223 226 229 230 233 239 241 243 244 248 251 253 255 257 261 261 263 268 271 271 272 274 274 279 282 281 285 292 295 294 294
223 223 222 225 225 228 230 227 229 226 226 229 223 223 224 227 232 238 244 241 242 245 250 251 252 253 257 261 262 265 268 272 272 275 275 276 280 281 286 286 288 288 288
224 224 223 225 226 227 229 227 228 227 227 229 228 228 227 229 231 233 241 243 242 243 245 249 251 253 255 259 262 266 268 272 273 276 278 280 280 280 282 285 285 285 286
225 226 223 224 227 227 227 228 230 231 231 231 231 233 234 234 231 233 240 239 242 247 250 251 254 254 256 261 263 265 267 268 270 272 274 276 278 280 280 283 285 286 287
226 227 227 226 225 227 227 229 231 233 235 235 233 233 235 237 236 235 237 241 244 247 251 254 257 258 258 260 263 263 266 267 271 272 274 274 276 278 279 282 285 286 286
228 227 227 227 228 228 231 230 231 236 236 237 235 235 236 237 239 240 240 241 243 247 250 254 256 259 261 263 263 264 266 267 268 270 271 271 274 276 279 281 284 286 286
230 229 227 228 229 230 232 234 234 235 237 239 238 239 239 239 240 241 243 244 246 247 249 251 254 256 258 260 261 263 265 266 268 270 273 273 274 276 279 283 284 285 287
232 232 231 229 230 232 234 235 237 238 237 235 237 239 240 242 242 243 244 246 247 249 250 253 255 257 257 258 261 264 266 267 269 270 272 273 276 277 280 282 283 285 285
233 234 234 233 232 232 234 236 237 239 242 241 239 238 240 242 244 245 247 248 249 250 252 253 255 257 259 261 263 265 267 268 269 269 271 273 275 277 278 280 281 283 284
231 234 235 236 236 236 236 237 238 240 241 243 244 244 243 244 246 247 249 250 252 254 254 255 257 258 259 260 262 264 266 267 268 270 272 273 276 277 278 279 279 282 281
232 235 237 238 238 239 240 241 242 243 244 245 246 247 249 250 251 251 252 253 255 256 257 258 259 260 261 263 264 265 266 268 269 269 271 271 271 274 275 276 277 279 282
233 234 237 239 241 242 242 243 245 246 248 250 251 252 253 254 255 256 257 258 258 259 260 261 262 262 263 264 264 264 265 266 268 269 270 272 273 272 274 277 279 281 282
234 236 238 240 242 243 245 247 248 249 251 253 254 255 255 256 257 257 258 259 259 260 261 261 262 262 264 265 265 265 266 266 267 268 269 271 271 271 273 278 278 279 280
236 237 239 242 244 245 247 249 251 253 253 254 255 257 258 259 259 260 260 261 262 263 263 262 262 261 261 262 263 263 263 264 266 268 269 270 271 273 274 276 277 278 279
240 243 243 243 246 249 252 253 254 255 255 256 257 258 259 260 261 262 262 262 262 263 263 263 262 261 261 262 262 263 263 264 266 267 268 269 270 272 274 273 275 276 278
241 244 247 250 253 254 255 254 254 255 256 257 259 260 260 261 262 262 261 261 262 262 261 261 260 260 261 261 261 262 263 264 266 267 267 269 269 270 272 273 272 274 278
244 249 253 254 256 255 254 255 256 256 258 259 260 260 261 263 263 263 263 263 262 261 260 260 259 260 261 260 260 261 263 264 266 267 267 267 268 268 268 268 271 274 276
251 252 252 252 251 252 251 252 254 255 258 260 261 261 263 263 264 265 265 264 261 259 259 260 259 261 261 261 261 261 261 263 262 262 264 266 265 263 266 268 268 274 279
254 253 252 253 252 252 251 252 254 255 257 259 261 264 263 264 265 265 264 262 260 259 256 254 253 255 257 257 257 259 259 258 259 259 259 261 260 262 263 269 274 275 279
250 252 255 255 255 254 253 252 253 254 256 260 261 263 262 263 263 264 264 263 262 257 255 254 253 253 252 252 253 251 252 253 253 254 255 258 256 260 267 270 273 277 282
Height
10640 10653 10664 10678 10690 10703 10716 10726 10738 10749 10759 10765 10768 10774 10781 10786 10790 10794 10799 10802 10807 10808 10809 10809 10809 10810 10812 10813 10812 10812 10813 10813 10811 10810 10808 10806 10804 10802 10800 10796 10794 10791 10790
10631 10645 10653 10667 10679 10692 10702 10713 10727 10740 10749 10753 10757 10764 10769 10776 10781 10786 10787 10790 10791 10794 10795 10797 10799 10800 10801 10802 10801 10800 10800 10800 10799 10797 10795 10794 10793 10790 10789 10784 10782 10780 10779
10620 10634 10641 10654 10667 10679 10689 10702 10715 10726 10737 10744 10749 10754 10760 10765 10769 10772 10778 10779 10780 10781 10781 10784 10785 10785 10786 10786 10786 10785 10785 10786 10785 10785 10783 10783 10782 10779 10774 10772 10771 10768 10766
10609 10622 10632 10643 10654 10667 10676 10688 10701 10714 10726 10734 10737 10742 10745 10750 10755 10760 10764 10767 10768 10769 10769 10773 10773 10772 10772 10771 10772 10772 10771 10773 10772 10772 10772 10770 10768 10766 10765 10759 10755 10754 10751
10596 10608 10619 10628 10638 10654 10662 10675 10689 10701 10712 10721 10723 10727 10732 10736 10742 10747 10751 10754 10757 10757 10757 10759 10754 10758 10759 10760 10759 10759 10760 10760 10761 10760 10760 10758 10756 10753 10751 10749 10744 10739 10734
10582 10590 10602 10615 10626 10642 10648 10659 10675 10687 10694 10702 10704 10709 10717 10723 10730 10735 10736 10737 10741 10744 10745 10746 10746 10748 10748 10747 10746 10745 10747 10747 10747 10745 10746 10744 10744 10743 10739 10737 10732 10729 10726
10565 10576 10590 10603 10616 10624 10631 10643 10659 10669 10671 10672 10689 10697 10703 10710 10716 10717 10718 10720 10725 10729 10729 10730 10731 10734 10732 10734 10733 10732 10731 10734 10734 10730 10729 10732 10731 10729 10726 10722 10721 10716 10713
10557 10566 10579 10589 10599 10607 10618 10631 10643 10650 10655 10664 10675 10680 10689 10695 10700 10705 10703 10709 10712 10713 10713 10712 10713 10717 10718 10718 10719 10720 10719 10717 10719 10717 10718 10718 10715 10714 10713 10709 10706 10704 10699
10543 10552 10565 10576 10584 10593 10602 10617 10622 10632 10642 10651 10658 10662 10669 10677 10684 10687 10690 10695 10696 10697 10698 10693 10698 10702 10704 10705 10705 10706 10708 10706 10704 10702 10700 10703 10702 10699 10698 10695 10689 10685 10683
10531 10540 10554 10564 10572 10580 10592 10600 10607 10619 10627 10635 10643 10649 10655 10661 10667 10671 10674 10680 10680 10681 10681 10679 10684 10689 10691 10692 10694 10695 10692 10693 10691 10689 10688 10687 10686 10683 10680 10678 10672 10667 10664
10518 10530 10542 10552 10560 10567 10576 10585 10595 10600 10608 10616 10625 10633 10640 10643 10651 10656 10660 10661 10663 10666 10664 10665 10668 10673 10676 10679 10678 10680 10678 10676 10675 10674 10673 10670 10668 10666 10663 10659 10656 10650 10645
10506 10518 10530 10537 10546 10554 10560 10571 10580 10584 10591 10598 10607 10616 10623 10629 10633 10637 10640 10644 10645 10648 10648 10649 10651 10655 10658 10660 10662 10661 10660 10661 10658 10656 10654 10652 10649 10649 10643 10641 10639 10634 10628
10494 10505 10517 10527 10534 10541 10548 10556 10566 10572 10579 10583 10592 10597 10605 10606 10613 10616 10620 10623 10625 10628 10629 10631 10633 10636 10637 10638 10639 10640 10640 10640 10639 10637 10636 10634 10633 10629 10626 10623 10617 10613 10610
10484 10493 10504 10514 10522 10528 10535 10541 10547 10553 10560 10567 10571 10576 10581 10585 10592 10595 10597 10601 10604 10607 10609 10611 10613 10616 10618 10620 10620 10622 10622 10620 10619 10618 10616 10615 10613 10611 10607 10602 10597 10593 10588
10474 10481 10488 10495 10504 10512 10519 10525 10531 10536 10539 10545 10550 10555 10560 10563 10568 10572 10576 10580 10583 10585 10587 10590 10593 10596 10599 10600 10603 10603 10603 10600 10598 10596 10596 10593 10591 10589 10586 10581 10577 10574 10568
10461 10468 10475 10481 10488 10495 10500 10506 10512 10516 10521 10527 10530 10536 10540 10545 10550 10553 10555 10559 10561 10564 10568 10571 10573 10575 10577 10579 10581 10582 10582 10577 10573 10573 10571 10569 10568 10566 10564 10561 10557 10553 10548
10453 10457 10462 10466 10472 10478 10483 10489 10493 10499 10503 10508 10512 10517 10521 10525 10529 10533 10537 10540 10542 10545 10545 10548 10551 10552 10554 10556 10557 10556 10554 10553 10551 10550 10546 10545 10546 10545 10543 10540 10537 10534 10529
10442 10446 10450 10454 10458 10463 10470 10474 10478 10482 10486 10490 10496 10500 10503 10506 10508 10511 10514 10516 10517 10518 10520 10525 10526 10528 10529 10530 10529 10528 10529 10528 10527 10525 10524 10524 10523 10522 10521 10519 10517 10515 10511
10430 10435 10439 10442 10447 10451 10455 10458 10462 10468 10472 10476 10478 10480 10482 10485 10488 10490 10492 10492 10493 10495 10497 10501 10501 10502 10503 10502 10502 10503 10504 10504 10503 10504 10503 10503 10503 10502 10502 10501 10498 10496 10494
10419 10423 10427 10431 10435 10438 10440 10444 10451 10453 10455 10457 10457 10460 10463 10464 10465 10466 10468 10470 10470 10472 10473 10475 10475 10478 10478 10478 10480 10481 10481 10482 10484 10485 10485 10485 10484 10483 10483 10483 10481 10479 10476
10409 10412 10415 10417 10420 10424 10429 10433 10435 10436 10437 10438 10440 10442 10443 10443 10444 10446 10447 10448 10449 10450 10451 10452 10453 10454 10456 10458 10460 10460 10462 10463 10464 10465 10466 10467 10466 10466 10466 10465 10464 10462 10461
10397 10399 10401 10406 10410 10414 10416 10416 10418 10419 10420 10421 10422 10423 10424 10423 10425 10425 10426 10427 10428 10429 10430 10432 10433 10435 10437 10439 10440 10442 10444 10445 10446 10448 10449 10449 10449 10449 10449 10449 10449 10448 10448
10383 10388 10392 10394 10397 10398 10399 10400 10401 10402 10404 10404 10404 10405 10406 10406 10406 10406 10406 10408 10410 10410 10411 10413 10414 10416 10418 10421 10423 10425 10427 10429 10431 10431 10432 10433 10434 10435 10435 10435 10436 10435 10434
10373 10376 10378 10380 10382 10383 10384 10385 10386 10387 10388 10389 10389 10390 10390 10389 10390 10390 10390 10391 10391 10392 10393 10395 10398 10401 10403 10405 10407 10409 10411 10414 10415 10416 10417 10419 10420 10420 10421 10422 10423 10423 10422
10359 10360 10363 10365 10367 10368 10370 10371 10373 10374 10374 10374 10375 10376 10376 10376 10376 10376 10376 10376 10376 10377 10378 10380 10382 10385 10388 10390 10392 10396 10398 10400 10401 10403 10404 10405 10406 10408 10409 10411 10411 10410 10409
10347 10349 10351 10353 10356 10357 10358 10359 10360 10361 10361 10362 10362 10363 10363 10363 10363 10363 10363 10363 10364 10365 10366 10368 10370 10372 10374 10377 10380 10382 10383 10385 10387 10389 10391 10392 10394 10396 10398 10399 10399 10397 10395